User: anonymous   Login
Location: ?????????
(38.0736°N, 23.2119°E)
Time: 19:14:38
(UTC+00:00)
Language:

Cosmos 1697 Rocket - Orbit

View from above orbital plane
View from above orbital plane
View from above satellite
View from above satellite

Ground track
Ground track

The orbit data is extracted from the following two-line orbital elements,

1 16182U 85097B   24165.64238894 -.00000141  00000-0 -47053-4 0  9990
2 16182  71.0036  35.2510 0006473 159.2453 267.7895 14.16424993997431
Epoch (UTC): 13 June 2024 15:25:02
Eccentricity: 0.0006473
inclination: 71.0036°
perigee height: 833 km
apogee height: 842 km
right ascension of ascending node: 35.2510°
argument of perigee: 159.2453°
revolutions per day: 14.16424993
mean anomaly at epoch: 267.7895°
orbit number at epoch: 99743

The dashed part of the orbit path shows where the satellite is in the earth's shadow,  

DLR